| time (UTC) | temp C | wind direction | speed KPH | gust KPH | rain 1hr cm | rain 24hr cm | rain mn cm | humidity % | barometer mb |
| 20260504081815 | 17 | 20 | 17.7 | 0.0 | 0.00 | 0.00 | 0.00 | 93 | 1015.0 |
| 20260504080815 | 17 | 20 | 17.7 | 0.0 | 0.00 | 0.00 | 0.00 | 93 | 1015.0 |
| 20260504045803 | 19 | 20 | 17.7 | 0.0 | 0.00 | 0.00 | 0.00 | 77 | 1018.0 |
| 20260504044802 | 19 | 20 | 17.7 | 0.0 | 0.00 | 0.00 | 0.00 | 77 | 1018.0 |
| 20260504043802 | 15 | 20 | 17.7 | 0.0 | 0.00 | 0.00 | 0.00 | 10 | 1018.0 |
| 20260504042801 | 15 | 20 | 17.7 | 0.0 | 0.00 | 0.00 | 0.00 | 91 | 1019.0 |
| 20260504041801 | 18 | 20 | 17.7 | 0.0 | 0.00 | 0.00 | 0.00 | 79 | 1019.0 |
| 20260504040800 | 19 | 20 | 17.7 | 0.0 | 0.00 | 0.00 | 0.00 | 81 | 1017.0 |
| 20260504035759 | 15 | 76 | 1.6 | 8.0 | 0.00 | 0.00 | 0.00 | 10 | 1017.0 |
| 20260504034759 | 16 | 30 | 1.6 | 8.0 | 0.00 | 0.00 | 0.00 | 10 | 1017.0 |
| 20260504033758 | 16 | 337 | 3.2 | 6.4 | 0.00 | 0.00 | 0.00 | 10 | 1017.0 |
| 20260504032757 | 16 | 66 | 1.6 | 17.7 | 0.00 | 0.00 | 0.00 | 10 | 1016.0 |
| 20260504031757 | 16 | 20 | 12.9 | 0.0 | 0.00 | 0.00 | 0.00 | 92 | 1016.0 |
| 20260504030756 | 16 | 20 | 12.9 | 0.0 | 0.00 | 0.00 | 0.00 | 91 | 1016.0 |
| 20260504025756 | 17 | 20 | 14.5 | 0.0 | 0.00 | 0.00 | 0.00 | 87 | 1016.0 |
| 20260504024755 | 16 | 30 | 8.0 | 0.0 | 0.08 | 0.00 | 0.00 | 92 | 1016.0 |
| 20260504023754 | 16 | 30 | 8.0 | 0.0 | 0.18 | 0.00 | 0.00 | 91 | 1016.0 |
| 20260504022754 | 18 | 30 | 9.7 | 0.0 | 0.00 | 0.00 | 0.00 | 85 | 1015.0 |
| 20260504021753 | 15 | 72 | 8.0 | 24.1 | 0.00 | 0.00 | 0.00 | 10 | 1015.0 |
| 20260504020752 | 17 | 350 | 12.9 | 0.0 | 0.00 | 0.00 | 0.00 | 90 | 1015.0 |
| 20260504015752 | 19 | 50 | 32.2 | 0.0 | 0.00 | 0.00 | 0.00 | 68 | 1016.0 |
| 20260504014751 | 16 | 95 | 12.9 | 56.3 | 0.00 | 0.00 | 0.00 | 96 | 1016.0 |
| 20260504013750 | 17 | 84 | 49.9 | 75.6 | 0.00 | 0.00 | 0.00 | 95 | 1015.0 |
| 20260504012750 | 20 | 350 | 12.9 | 0.0 | 0.00 | 0.00 | 0.00 | 94 | 1015.0 |
| 20260504011749 | 21 | 350 | 12.9 | 0.0 | 0.00 | 0.00 | 0.00 | 93 | 1015.0 |
| 20260504010748 | 21 | 96 | 1.6 | 12.9 | 0.03 | 0.00 | 0.00 | 10 | 1015.0 |
| 20260504005748 | 20 | 292 | 4.8 | 17.7 | 0.03 | 0.00 | 0.00 | 90 | 1015.0 |
| 20260504004747 | 19 | 0 | 4.8 | 0.0 | 0.00 | 0.00 | 0.00 | 80 | 1014.0 |
| 20260504003747 | 20 | 0 | 4.8 | 0.0 | 0.03 | 0.00 | 0.00 | 80 | 1014.0 |
| 20260504002746 | 20 | 0 | 4.8 | 0.0 | 0.00 | 0.00 | 0.00 | 92 | 1013.0 |
| 20260504001745 | 20 | 0 | 4.8 | 0.0 | 0.00 | 0.00 | 0.00 | 92 | 1013.0 |
| 20260504000745 | 21 | 329 | 4.8 | 17.7 | 0.00 | 0.00 | 0.00 | 91 | 1013.0 |
| 20260503235744 | 21 | 46 | 4.8 | 16.1 | 0.00 | 0.00 | 0.00 | 90 | 1013.0 |
| 20260503234743 | 22 | 83 | 6.4 | 17.7 | 0.00 | 0.00 | 0.00 | 88 | 1013.0 |
| 20260503233743 | 22 | 79 | 4.8 | 16.1 | 0.00 | 0.00 | 0.00 | 87 | 1013.0 |
| 20260503232742 | 23 | 61 | 6.4 | 12.9 | 0.00 | 0.00 | 0.00 | 81 | 1013.0 |
| 20260503231741 | 21 | 28 | 6.4 | 12.9 | 0.00 | 0.00 | 0.00 | 89 | 1013.0 |
| 20260503230741 | 22 | 200 | 6.4 | 0.0 | 0.00 | 0.00 | 0.00 | 88 | 1013.0 |
| 20260503225740 | 22 | 200 | 6.4 | 0.0 | 0.00 | 0.00 | 0.00 | 81 | 1012.0 |
| 20260503224739 | 23 | 200 | 6.4 | 0.0 | 0.00 | 0.00 | 0.00 | 83 | 1012.0 |
| 20260503223739 | 23 | 200 | 6.4 | 0.0 | 0.00 | 0.00 | 0.00 | 83 | 1012.0 |
| 20260503222738 | 22 | 220 | 17.7 | 0.0 | 0.00 | 0.00 | 0.00 | 79 | 1012.0 |
| 20260503221738 | 22 | 220 | 17.7 | 0.0 | 0.00 | 0.00 | 0.00 | 79 | 1012.0 |
| 20260503220737 | 22 | 220 | 17.7 | 0.0 | 0.00 | 0.00 | 0.00 | 84 | 1012.0 |
| 20260503215736 | 22 | 220 | 17.7 | 0.0 | 0.00 | 0.00 | 0.00 | 82 | 1012.0 |
| 20260503214736 | 22 | 220 | 17.7 | 0.0 | 0.00 | 0.00 | 0.00 | 82 | 1012.0 |
| 20260503213735 | 23 | 220 | 17.7 | 0.0 | 0.00 | 0.00 | 0.00 | 74 | 1012.0 |
| 20260503212734 | 21 | 59 | 1.6 | 8.0 | 0.10 | 0.00 | 0.00 | 10 | 1013.0 |
| 20260503211734 | 21 | 107 | 12.9 | 24.1 | 0.18 | 0.00 | 0.00 | 10 | 1013.0 |
| 20260503210733 | 21 | 107 | 12.9 | 24.1 | 0.18 | 0.00 | 0.00 | 10 | 1013.0 |
| 20260503205733 | 22 | 99 | 4.8 | 12.9 | 0.13 | 0.00 | 0.00 | 10 | 1012.0 |
| 20260503204732 | 22 | 98 | 4.8 | 12.9 | 0.10 | 0.00 | 0.00 | 10 | 1012.0 |
| 20260503203731 | 22 | 69 | 4.8 | 8.0 | 0.10 | 0.00 | 0.00 | 10 | 1012.0 |
| 20260503202731 | 22 | 80 | 1.6 | 12.9 | 0.05 | 0.00 | 0.00 | 10 | 1013.0 |
| 20260503201730 | 22 | 51 | 6.4 | 12.9 | 0.00 | 0.00 | 0.00 | 10 | 1013.0 |
| 20260503200729 | 22 | 46 | 6.4 | 27.4 | 0.03 | 0.00 | 0.00 | 10 | 1013.0 |
| 20260503195729 | 23 | 20 | 20.9 | 0.0 | 0.00 | 0.00 | 0.00 | 81 | 1012.0 |
| 20260503194728 | 23 | 20 | 20.9 | 0.0 | 0.00 | 0.00 | 0.00 | 81 | 1012.0 |
| 20260503193727 | 24 | 20 | 20.9 | 0.0 | 0.00 | 0.00 | 0.00 | 72 | 1012.0 |
| 20260503192727 | 25 | 20 | 20.9 | 0.0 | 0.00 | 0.00 | 0.00 | 50 | 1013.0 |
| 20260503191726 | 25 | 20 | 20.9 | 0.0 | 0.00 | 0.00 | 0.00 | 50 | 1013.0 |
| 20260503190726 | 25 | 20 | 20.9 | 0.0 | 0.00 | 0.00 | 0.00 | 49 | 1013.0 |
| 20260503185725 | 27 | 40 | 20.9 | 0.0 | 0.00 | 0.00 | 0.00 | 47 | 1013.0 |
| 20260503184724 | 23 | 59 | 8.0 | 17.7 | 0.00 | 0.00 | 0.00 | 10 | 1013.0 |
| 20260503183724 | 26 | 40 | 20.9 | 0.0 | 0.00 | 0.00 | 0.00 | 71 | 1013.0 |
| 20260503182723 | 26 | 40 | 20.9 | 0.0 | 0.00 | 0.00 | 0.00 | 49 | 1014.0 |
| 20260503181722 | 26 | 40 | 20.9 | 0.0 | 0.00 | 0.00 | 0.00 | 64 | 1014.0 |
| 20260503180722 | 27 | 40 | 20.9 | 0.0 | 0.00 | 0.00 | 0.00 | 47 | 1014.0 |
| 20260503175721 | 26 | 40 | 14.5 | 0.0 | 0.00 | 0.00 | 0.00 | 50 | 1014.0 |
| 20260503174721 | 26 | 40 | 14.5 | 0.0 | 0.00 | 0.00 | 0.00 | 50 | 1014.0 |
| 20260503173720 | 26 | 40 | 14.5 | 0.0 | 0.00 | 0.00 | 0.00 | 66 | 1015.0 |
| 20260503172719 | 26 | 40 | 14.5 | 0.0 | 0.00 | 0.00 | 0.00 | 66 | 1015.0 |
| 20260503171719 | 26 | 40 | 14.5 | 0.0 | 0.00 | 0.00 | 0.00 | 59 | 1015.0 |
| 20260503170718 | 25 | 60 | 6.4 | 0.0 | 0.00 | 0.00 | 0.00 | 53 | 1015.0 |
| 20260503150710 | 23 | 30 | 9.7 | 0.0 | 0.00 | 0.00 | 0.00 | 57 | 1016.0 |
| 20260503130703 | 17 | 360 | 17.7 | 0.0 | 0.00 | 0.00 | 0.00 | 89 | 1015.0 |
| 20260503110655 | 15 | 20 | 24.1 | 0.0 | 0.00 | 0.00 | 0.00 | 95 | 1015.0 |